Sarasota, FL

12:14 PM EDT on October 23, 2019 (GMT -0400)
Sarasota-bradenton

Weather History for KSRQ - August, 2019

Change the Weather History Date:

Wednesday, August 21, 2019

  Actual Average Record
Temperature  
Mean Temperature 84 °F 82 °F  
Max Temperature 91 °F 90 °F 97 °F (1919)
Min Temperature 75 °F 74 °F 68 °F (1927)
Degree Days  
Heating Degree Days 0 0  
Month to date heating degree days 0 0  
Since 1 June heating degree days 0 0  
Since 1 July heating degree days 0 0  
Cooling Degree Days 18 17  
Month to date cooling degree days 381 357  
Year to date cooling degree days 2652 2119  
Since 1 June cooling degree days 1495 1368  
Growing Degree Days 34 (Base 50)    
Moisture  
Dew Point 75 °F    
Average Humidity 82    
Maximum Humidity 100    
Minimum Humidity 52    
Precipitation  
Precipitation 0.51 in 0.32 in 2.85 in (1981)
Month to date precipitation 12.42 6.20  
Year to date precipitation 40.95 35.39  
Sea Level Pressure  
Sea Level Pressure 30.04 in    
Wind  
Wind Speed 5 mph ()    
Max Wind Speed 15 mph    
Max Gust Speed 20 mph    
Visibility 9.1 miles    
Events Rain , Thunderstorm    
T = Trace of Precipitation, MM = Missing Value Source: Averaged Metar Reports

Daily Weather History Graph

Daily Weather History Graph

Search for Another Location

Airport or City:

Astronomy

Aug. 21, 2019 Rise Set
Actual Time 7:03 AM EDT 8:02 PM EDT
Civil Twilight 6:39 AM EDT 8:26 PM EDT
Nautical Twilight 6:11 AM EDT 8:54 PM EDT
Astronomical Twilight 5:41 AM EDT 9:24 PM EDT
Moon 11:50 PM EDT (8/21) 12:10 PM EDT (8/21)
Length of Visible Light 13h 46m
Length of Day
12h 58m
Waning Gibbous, 69% of the Moon is Illuminated
Aug 21
Waning Gibbous
Aug 23
Last Quarter
Aug 30
New
Sep 5
First Quarter
Sep 14
Full

Hourly Weather History & Observations

Time (EDT) Temp. Heat Index Dew Point Humidity Pressure Visibility Wind Dir Wind Speed Gust Speed Precip Events Conditions
12:53 AM 77.0 °F - 73.9 °F 90% 30.07 in 10.0 mi Calm Calm - N/A   Clear
1:53 AM 75.9 °F - 73.9 °F 94% 30.06 in 10.0 mi NE 5.8 mph - N/A   Clear
2:53 AM 75.9 °F - 75.0 °F 97% 30.04 in 10.0 mi ENE 3.5 mph - N/A   Clear
3:53 AM 75.9 °F - 75.0 °F 97% 30.04 in 10.0 mi East 3.5 mph - N/A   Clear
4:53 AM 75.9 °F - 75.0 °F 97% 30.03 in 10.0 mi ENE 3.5 mph - N/A   Clear
5:53 AM 75.9 °F - 73.9 °F 94% 30.04 in 10.0 mi East 6.9 mph - N/A   Clear
6:53 AM 75.9 °F - 73.9 °F 94% 30.05 in 10.0 mi East 5.8 mph - N/A   Clear
7:53 AM 75.9 °F - 73.9 °F 94% 30.06 in 10.0 mi East 8.1 mph - N/A   Clear
8:53 AM 80.1 °F 85.1 °F 75.0 °F 85% 30.07 in 10.0 mi East 9.2 mph - N/A   Clear
9:53 AM 82.9 °F 90.2 °F 75.0 °F 77% 30.08 in 10.0 mi ESE 12.7 mph - N/A   Clear
10:53 AM 84.0 °F 91.9 °F 75.0 °F 74% 30.08 in 10.0 mi East 11.5 mph - N/A   Scattered Clouds
11:53 AM 87.1 °F 95.4 °F 73.9 °F 65% 30.09 in 10.0 mi ESE 10.4 mph - N/A   Scattered Clouds
12:53 PM 89.1 °F 98.0 °F 73.9 °F 61% 30.06 in 10.0 mi ESE 10.4 mph - N/A   Scattered Clouds
1:53 PM 90.0 °F 99.0 °F 73.9 °F 59% 30.05 in 10.0 mi ESE 12.7 mph - N/A   Partly Cloudy
2:53 PM 91.0 °F 98.2 °F 72.0 °F 53% 30.04 in 10.0 mi SSE 9.2 mph - N/A   Mostly Cloudy
3:53 PM 88.0 °F 98.5 °F 75.9 °F 67% 30.03 in 10.0 mi WSW 10.4 mph - N/A   Partly Cloudy
4:53 PM 88.0 °F 98.5 °F 75.9 °F 67% 30.02 in 10.0 mi SW 9.2 mph - N/A   Clear
5:43 PM 87.1 °F 98.8 °F 77.0 °F 72% 30.01 in 10.0 mi WSW 6.9 mph - N/A Thunderstorm Scattered Clouds
5:53 PM 87.1 °F 98.8 °F 77.0 °F 72% 30.00 in 10.0 mi WSW 10.4 mph - N/A   Scattered Clouds
6:07 PM 86.0 °F 96.0 °F 75.9 °F 72% 30.01 in 10.0 mi West 6.9 mph - N/A Thunderstorm Thunderstorm
6:22 PM 86.0 °F 96.9 °F 77.0 °F 74% 30.01 in 10.0 mi West 5.8 mph - N/A Thunderstorm Partly Cloudy
6:40 PM 86.0 °F 96.9 °F 77.0 °F 74% 30.01 in 10.0 mi WNW 5.8 mph - 0.00 in Rain Light Rain
6:53 PM 84.9 °F 95.3 °F 77.0 °F 77% 30.01 in 10.0 mi West 3.5 mph - 0.00 in Rain Light Rain
7:53 PM 84.0 °F 92.6 °F 75.9 °F 76% 30.01 in 10.0 mi WNW 4.6 mph - 0.02 in   Clear
8:53 PM 82.0 °F 89.4 °F 75.9 °F 82% 30.02 in 10.0 mi NW 5.8 mph - N/A   Clear
9:36 PM 82.0 °F 91.0 °F 78.1 °F 88% 30.05 in 10.0 mi East 6.9 mph - N/A Thunderstorm Mostly Cloudy
9:48 PM 80.6 °F 86.2 °F 75.2 °F 84% 30.05 in 10.0 mi ENE 12.7 mph 19.6 mph N/A Thunderstorm Thunderstorm
9:57 PM 79.0 °F - 75.9 °F 90% 30.06 in 1.8 mi North 6.9 mph - 0.31 in Rain , Thunderstorm Heavy Thunderstorms and Rain
10:04 PM 77.0 °F - 75.0 °F 94% 30.06 in 1.0 mi NW 6.9 mph - 0.46 in Rain , Thunderstorm Heavy Thunderstorms and Rain
10:11 PM 78.1 °F - 75.0 °F 90% 30.06 in 5.0 mi Calm Calm - 0.48 in Rain , Thunderstorm Light Thunderstorms and Rain
10:23 PM 78.1 °F - 75.9 °F 93% 30.06 in 5.0 mi Calm Calm - 0.48 in Rain , Thunderstorm Light Thunderstorms and Rain
10:53 PM 78.1 °F - 75.9 °F 93% 30.05 in 5.0 mi Calm Calm - 0.48 in Thunderstorm Mostly Cloudy
11:11 PM 78.1 °F - 75.9 °F 93% 30.05 in 10.0 mi NE 3.5 mph - N/A   Clear
11:53 PM 78.1 °F - 77.0 °F 96% 30.05 in 10.0 mi Calm Calm - 0.01 in Rain Light Rain